Regional Weather Roundup
Issued by NWS

Home | Current Version | Previous Version | Text Only | Print | Product List | Glossary On
Versions: 1 2 3 4 5 6 7 8 9 10 11 12 13 14 15 16 17 18 19 20 21 22 23 24 25 26 27 28 29 30 31 32 33 34 35 36 37 38 39 40 41 42 43 44 45 46 47 48 49 50
000
ASUS43 KBIS 250220
RWRND

NORTH DAKOTA REGIONAL WEATHER ROUNDUP
NATIONAL WEATHER SERVICE BISMARCK ND
900 PM CDT FRI OCT 24 2014

NOTE: "FAIR" INDICATES FEW OR NO CLOUDS BELOW 12,000 FEET WITH NO
SIGNIFICANT WEATHER AND/OR OBSTRUCTIONS TO VISIBILITY.


NDZ001>003-009>011-017-250300-
NORTHWEST NORTH DAKOTA

CITY           SKY/WX    TMP DP  RH WIND       PRES   REMARKS
WILLISTON      CLEAR     44  27  51 W8        30.01R
MINOT          CLEAR     53  28  38 W14       29.95R
MINOT AFB      CLEAR     47  31  54 W10       29.94R
$$

NDZ018>021-031>035-040>046-250300-
SOUTHWEST NORTH DAKOTA

CITY           SKY/WX    TMP DP  RH WIND       PRES   REMARKS
BISMARCK       PTCLDY    51  32  48 W8        30.01R
DICKINSON      MOCLDY    42  30  62 W8        30.04R
GARRISON         N/A     52  30  43 W10       29.99R
HETTINGER ARPT MOCLDY    50  34  54 NW7       30.06R
$$

NDZ004>008-012>016-024-026-027-054-250300-
NORTHEAST NORTH DAKOTA

CITY           SKY/WX    TMP DP  RH WIND       PRES   REMARKS
GRAND FORKS    PTCLDY    54  34  46 W9        29.84R
GRND FRKS AFB  PTCLDY    55  34  46 NW10      29.86R
DEVILS LAKE    CLEAR     50  34  53 W13       29.89R
$$

NDZ022-023-025-028>030-036>039-047>053-250300-
SOUTHEAST NORTH DAKOTA

CITY           SKY/WX    TMP DP  RH WIND       PRES   REMARKS
FARGO          CLEAR     58  34  40 W10       29.88R
JAMESTOWN      PTCLDY    53  34  48 W14       29.94R
$$




USA.gov is the U.S. government's official web portal to all federal, state and local government web resources and services.